Currently 64°F in Fallbrook, California, USA
64°F
67°F / 64°F
calm
0.00"
Thursday, July 20, 2017 5:43 AM PDT

Fallbrook, California Weather Summary
Last 36 Hours

Temperature Winds Hourly Humidity Dewpoint
Time Report Norm Report Norm Max Gusts Precip. Rpt. Norm Rpt. Norm Pressure
1Thu 05:43 AM  64.1°F  64°F  calm  calm  none  0.00"  100%  98%  64°F  63°F  30.00"
3Thu 05:38 AM  64.0°F  64°F  calm  calm  none  ----  100%  98%  64°F  63°F  30.00"
Thu 05:00 AM  64.2°F  64°F  calm  calm  none  0.00"  100%  98%  64°F  63°F  30.00"
Thu 04:00 AM  65.2°F  64°F  calm  calm  none  0.00"  100%  98%  65°F  64°F  29.98"
Thu 03:00 AM  65.1°F  65°F  calm  calm  none  0.00"  100%  98%  65°F  64°F  29.99"
Thu 02:00 AM  65.9°F  65°F  calm  calm  none  0.00"  100%  98%  66°F  64°F  29.99"
Thu 01:00 AM  66.5°F  65°F  calm  calm  none  0.00"  100%  97%  66°F  64°F  29.99"
2Thu 12:44 AM  66.8°F  65°F  calm  calm  none  ----  100%  97%  67°F  64°F  29.99"
Thu 12:00 AM  66.7°F  65°F  calm  calm  none  0.00"  99%  96%  66°F  64°F  30.00"
Wed 11:00 PM  67.2°F  66°F  calm  calm  none  0.00"  99%  96%  67°F  65°F  30.01"
Wed 10:00 PM  68.1°F  66°F  calm  calm  none  0.00"  98%  94%  67°F  65°F  30.00"
Wed 09:00 PM  69.5°F  68°F  calm  calm  3 mph  0.00"  95%  91%  68°F  65°F  29.98"
Wed 08:00 PM  71.7°F  70°F  calm  1 mph  6 mph  0.00"  88%  84%  68°F  65°F  29.97"
Wed 07:00 PM  74.7°F  74°F  2 mph SW  3 mph  7 mph  0.00"  80%  74%  68°F  65°F  29.94"
Wed 06:00 PM  78.9°F  77°F  3 mph S  4 mph  9 mph  0.00"  68%  66%  67°F  64°F  29.92"
Wed 05:00 PM  81.3°F  80°F  2 mph SW  5 mph  10 mph  0.00"  63%  60%  67°F  64°F  29.92"
Wed 04:00 PM  85.9°F  82°F  4 mph S  6 mph  9 mph  0.00"  55%  56%  67°F  64°F  29.93"
Wed 03:00 PM  86.7°F  83°F  2 mph SW  6 mph  9 mph  0.00"  55%  53%  68°F  64°F  29.95"
Wed 02:00 PM  85.0°F  84°F  3 mph SW  5 mph  7 mph  0.00"  59%  52%  68°F  64°F  29.97"
Wed 01:00 PM  82.7°F  84°F  1 mph SW  5 mph  5 mph  0.00"  65%  53%  69°F  65°F  29.99"
Wed 12:00 PM  79.3°F  83°F  calm  4 mph  5 mph  0.00"  70%  57%  69°F  65°F  30.00"
Wed 11:00 AM  75.7°F  80°F  2 mph SW  2 mph  4 mph  0.00"  86%  64%  71°F  66°F  30.01"
Wed 10:00 AM  71.6°F  75°F  calm  2 mph  none  0.00"  96%  75%  70°F  67°F  30.01"
Wed 09:00 AM  70.0°F  70°F  calm  1 mph  none  0.00"  98%  86%  69°F  66°F  30.01"
Wed 08:00 AM  69.1°F  67°F  calm  calm  none  0.00"  98%  93%  68°F  65°F  30.02"
Wed 07:00 AM  68.5°F  64°F  calm  calm  none  0.00"  98%  97%  68°F  64°F  29.99"
Wed 06:00 AM  68.2°F  64°F  calm  calm  none  0.00"  98%  98%  68°F  63°F  29.97"
Wed 05:00 AM  68.4°F  64°F  calm  calm  none  0.00"  98%  98%  68°F  63°F  29.96"
Wed 04:00 AM  68.5°F  64°F  calm  calm  none  0.00"  97%  98%  68°F  64°F  29.94"
Wed 03:00 AM  68.5°F  64°F  calm  calm  none  0.00"  97%  98%  68°F  64°F  29.96"
Wed 02:00 AM  68.7°F  65°F  calm  calm  none  0.00"  97%  98%  68°F  64°F  29.96"
Wed 01:00 AM  68.8°F  65°F  calm  calm  none  0.00"  97%  97%  68°F  64°F  29.96"
Wed 12:00 AM  68.3°F  65°F  calm  calm  none  0.00"  97%  96%  67°F  64°F  29.97"
Tue 11:00 PM  68.3°F  66°F  calm  calm  none  0.00"  97%  95%  67°F  64°F  29.97"
Tue 10:00 PM  68.4°F  66°F  calm  calm  4 mph  0.00"  96%  94%  67°F  65°F  29.98"
Tue 09:00 PM  69.8°F  68°F  1 mph SW  calm  3 mph  0.00"  89%  91%  66°F  65°F  29.96"
Tue 08:00 PM  72.5°F  70°F  calm  1 mph  5 mph  0.00"  78%  84%  65°F  65°F  29.94"
Tue 07:00 PM  76.0°F  74°F  1 mph S  3 mph  8 mph  0.00"  67%  74%  64°F  65°F  29.94"
Tue 06:00 PM  78.2°F  77°F  4 mph SW  4 mph  9 mph  0.00"  64%  65%  65°F  64°F  29.93"

  1. Current weather data. No green row appears if the current weather data is also the high or low for the current day.
  2. High temperature for the current day.
  3. Low temperature for the current day.

The Fallbrook weather pages are a service of WeatherCurrents. Fallbrook, California is located in northern San Diego County, close to I15 and Camp Pendleton, and is home to ranches, avocado and citrus groves, and plant nurseries.
Copyright ©Thu Jul 20 05:44:19 PDT 2017  WeatherCurrents. All rights reserved. - Submit questions and comments - Privacy Policy

This page automatically refreshes every 10 minutes.